Whiteman AFB, MO

5:14 PM CDT on October 19, 2017 (GMT -0500)
Whiteman Air Force Base

Weather History for KSZL - February, 2012

Change the Weather History Date:

Tuesday, February 21, 2012

  Actual Average Record
Temperature  
Mean Temperature 44 °F -  
Max Temperature 53 °F 44 °F 70 °F (2017)
Min Temperature 34 °F 28 °F 15 °F (2006)
Degree Days  
Heating Degree Days 20    
Moisture  
Dew Point 37 °F    
Average Humidity 82    
Maximum Humidity 100    
Minimum Humidity 36    
Precipitation  
Precipitation 0.00 in - - ()
Sea Level Pressure  
Sea Level Pressure 29.80 in    
Wind  
Wind Speed 15 mph (WSW)    
Max Wind Speed 20 mph    
Max Gust Speed 32 mph    
Visibility 10 miles    
Events Rain    
Averages and records for this station are not official NWS values.
T = Trace of Precipitation, MM = Missing Value Source: NWS Daily Summary

Daily Weather History Graph

Daily Weather History Graph

Search for Another Location

Airport or City:

Trip Planner

Search our weather history database for the weather conditions in past years. The results will help you decide how hot, cold, wet, or windy it might be!

Date:

Astronomy

Feb. 21, 2012 Rise Set
Actual Time 6:58 AM CST 5:58 PM CST
Civil Twilight 6:31 AM CST 6:25 PM CST
Nautical Twilight 6:00 AM CST 6:56 PM CST
Astronomical Twilight 5:29 AM CST 7:26 PM CST
Moon 6:27 AM CST (2/21) 6:04 PM CST (2/21)
Length of Visible Light 11h 53m
Length of Day
10h 59m
Waning Crescent, 0% of the Moon is Illuminated
Feb 21
Waning Crescent
Feb 21
New
Feb 29
First Quarter
Mar 8
Full
Mar 14
Last Quarter

Hourly Weather History & Observations

Time (CST) Temp. Windchill Dew Point Humidity Pressure Visibility Wind Dir Wind Speed Gust Speed Precip Events Conditions
12:39 AM 41.0 °F 33.5 °F 41.0 °F 100% 29.65 in 10.0 mi SSW 13.8 mph - N/A   Overcast
12:55 AM 42.3 °F 35.1 °F 42.1 °F 99% 29.65 in 10.0 mi SW 13.8 mph - N/A   Overcast
1:01 AM 42.8 °F 35.1 °F 42.8 °F 100% 29.65 in 10.0 mi WSW 16.1 mph 24.2 mph N/A   Overcast
1:03 AM 42.8 °F 35.4 °F 42.8 °F 100% 29.66 in 10.0 mi SW 15.0 mph - N/A   Overcast
1:20 AM 42.8 °F 35.1 °F 41.0 °F 93% 29.66 in 10.0 mi WSW 16.1 mph - N/A   Mostly Cloudy
1:30 AM 41.0 °F 32.8 °F 41.0 °F 100% 29.67 in 10.0 mi WSW 16.1 mph 21.9 mph N/A Rain Light Rain
1:33 AM 41.0 °F 32.8 °F 41.0 °F 100% 29.67 in 10.0 mi WSW 16.1 mph 21.9 mph N/A   Mostly Cloudy
1:55 AM 41.4 °F 34.0 °F 41.2 °F 99% 29.68 in 10.0 mi WSW 13.8 mph - 0.00 in   Mostly Cloudy
2:14 AM 41.0 °F 33.1 °F 41.0 °F 100% 29.69 in 10.0 mi WSW 15.0 mph - N/A   Overcast
2:27 AM 41.0 °F 33.1 °F 41.0 °F 100% 29.70 in 10.0 mi WSW 15.0 mph - N/A   Overcast
2:55 AM 41.2 °F 32.7 °F 41.0 °F 99% 29.69 in 10.0 mi West 17.3 mph - N/A   Overcast
3:35 AM 41.0 °F 32.8 °F 41.0 °F 100% 29.73 in 10.0 mi WSW 16.1 mph - N/A   Overcast
3:55 AM 41.4 °F 32.4 °F 41.2 °F 99% 29.74 in 10.0 mi WSW 19.6 mph 25.3 mph N/A   Overcast
3:56 AM 41.0 °F 32.8 °F 41.0 °F 100% 29.74 in 10.0 mi WSW 16.1 mph 25.3 mph N/A   Overcast
4:15 AM 41.0 °F 32.2 °F 41.0 °F 100% 29.75 in 10.0 mi West 18.4 mph 24.2 mph N/A   Overcast
4:55 AM 41.0 °F 32.5 °F 40.6 °F 99% 29.77 in 10.0 mi West 17.3 mph 32.2 mph N/A   Overcast
5:37 AM 41.0 °F 32.2 °F 39.2 °F 93% 29.81 in 10.0 mi West 18.4 mph 26.5 mph N/A   Overcast
5:55 AM 40.3 °F 32.2 °F 40.1 °F 99% 29.82 in 10.0 mi West 15.0 mph - N/A   Overcast
6:55 AM 39.0 °F 31.4 °F 37.0 °F 93% 29.87 in 10.0 mi West 12.7 mph 26.5 mph N/A   Overcast
7:07 AM 39.2 °F 30.5 °F 35.6 °F 87% 29.89 in 10.0 mi West 16.1 mph - N/A   Overcast
7:55 AM 38.7 °F 30.9 °F 35.8 °F 89% 29.91 in 10.0 mi West 12.7 mph - N/A   Scattered Clouds
8:55 AM 40.1 °F 31.3 °F 36.0 °F 85% 29.93 in 10.0 mi West 17.3 mph 20.7 mph N/A   Scattered Clouds
9:55 AM 43.2 °F 37.0 °F 36.1 °F 76% 29.94 in 10.0 mi West 11.5 mph - N/A   Scattered Clouds
10:55 AM 46.0 °F 41.9 °F 36.0 °F 68% 29.94 in 10.0 mi West 8.1 mph - N/A   Scattered Clouds
11:55 AM 49.8 °F - 34.5 °F 56% 29.94 in 10.0 mi WSW 13.8 mph 21.9 mph N/A   Scattered Clouds
12:55 PM 51.1 °F - 31.6 °F 47% 29.91 in 10.0 mi West 15.0 mph 21.9 mph N/A   Overcast
1:55 PM 50.4 °F - 30.6 °F 47% 29.89 in 10.0 mi WSW 16.1 mph 23.0 mph N/A   Overcast
2:55 PM 51.3 °F - 30.2 °F 44% 29.88 in 10.0 mi SW 16.1 mph 26.5 mph N/A   Overcast
3:55 PM 53.2 °F - 26.6 °F 36% 29.86 in 10.0 mi WSW 19.6 mph - N/A   Mostly Cloudy
4:55 PM 52.7 °F - 28.2 °F 39% 29.86 in 10.0 mi WSW 15.0 mph 23.0 mph N/A   Clear
5:55 PM 50.5 °F - 28.4 °F 42% 29.86 in 10.0 mi SW 12.7 mph - N/A   Clear
6:55 PM 43.5 °F 38.3 °F 30.7 °F 61% 29.88 in 10.0 mi SW 9.2 mph - N/A   Clear
7:55 PM 40.5 °F 34.1 °F 31.1 °F 69% 29.87 in 10.0 mi SW 10.4 mph - N/A   Clear
8:55 PM 38.5 °F 32.1 °F 30.4 °F 73% 29.85 in 10.0 mi SSW 9.2 mph - N/A   Clear
9:55 PM 36.1 °F 29.3 °F 30.6 °F 80% 29.83 in 10.0 mi SSW 9.2 mph - N/A   Clear
10:55 PM 36.0 °F 28.0 °F 31.3 °F 83% 29.81 in 10.0 mi South 11.5 mph - N/A   Clear
11:55 PM 34.7 °F 26.9 °F 31.1 °F 87% 29.78 in 10.0 mi SSW 10.4 mph - N/A   Clear